Panama City, FL

6:52 PM CDT on March 27, 2017 (GMT -0500)
Northwest Florida Beaches International

Weather History for KECP - August, 2013

Change the Weather History Date:

Sunday, August 11, 2013

  Actual Average Record
Temperature  
Mean Temperature 83 °F -  
Max Temperature 92 °F - 93 °F (2011)
Min Temperature 74 °F - 71 °F (2012)
Degree Days  
Heating Degree Days 0    
Cooling Degree Days 18    
Growing Degree Days 32 (Base 50)    
Moisture  
Dew Point 74 °F    
Average Humidity 73    
Maximum Humidity 94    
Minimum Humidity 52    
Precipitation  
Precipitation 0.00 in - 2.38 in (2012)
Month to date precipitation  
Year to date precipitation  
Sea Level Pressure  
Sea Level Pressure 30.14 in    
Wind  
Wind Speed 3 mph (SSE)    
Max Wind Speed 14 mph    
Max Gust Speed 29 mph    
Visibility 10 miles    
Events      
T = Trace of Precipitation, MM = Missing Value Source: NWS Daily Summary

Daily Weather History Graph

Daily Weather History Graph

Search for Another Location

Airport or City:

Trip Planner

Search our weather history database for the weather conditions in past years. The results will help you decide how hot, cold, wet, or windy it might be!

Date:

Astronomy

Aug. 11, 2013 Rise Set
Actual Time 7:07 AM EDT 8:28 PM EDT
Civil Twilight 6:42 AM EDT 8:53 PM EDT
Nautical Twilight 6:12 AM EDT 9:24 PM EDT
Astronomical Twilight 5:40 AM EDT 9:55 PM EDT
Moon 11:30 AM EDT (8/11) 11:10 PM EDT (8/11)
Length of Visible Light 14h 11m
Length of Day
13h 20m
Waxing Crescent, 22% of the Moon is Illuminated
Aug 11
Waxing Crescent
Aug 14
First Quarter
Aug 20
Full
Aug 28
Last Quarter
Sep 5
New

Hourly Weather History & Observations

Time (EDT) Temp. Heat Index Dew Point Humidity Pressure Visibility Wind Dir Wind Speed Gust Speed Precip Events Conditions
12:53 AM 75.9 °F - 73.9 °F 94% 30.13 in 10.0 mi ESE 3.5 mph - N/A   Clear
1:53 AM 75.9 °F - 73.0 °F 91% 30.13 in 10.0 mi Calm Calm - N/A   Clear
2:53 AM 75.0 °F - 73.0 °F 94% 30.13 in 10.0 mi Calm Calm - N/A   Clear
3:53 AM 73.9 °F - 72.0 °F 93% 30.12 in 10.0 mi Calm Calm - N/A   Clear
4:53 AM 73.9 °F - 72.0 °F 93% 30.13 in 10.0 mi Calm Calm - N/A   Clear
5:53 AM 73.9 °F - 72.0 °F 93% 30.14 in 10.0 mi North - - N/A   Partly Cloudy
6:53 AM 73.9 °F - 72.0 °F 93% 30.15 in 10.0 mi Calm Calm - N/A   Partly Cloudy
7:53 AM 75.9 °F - 73.0 °F 91% 30.16 in 10.0 mi Calm Calm - N/A   Partly Cloudy
8:53 AM 80.1 °F 85.1 °F 75.0 °F 85% 30.17 in 10.0 mi ENE 4.6 mph - N/A   Partly Cloudy
9:53 AM 84.9 °F 94.1 °F 75.9 °F 74% 30.18 in 10.0 mi East 4.6 mph - N/A   Clear
10:53 AM 87.1 °F 97.3 °F 75.9 °F 69% 30.19 in 10.0 mi Variable 5.8 mph - N/A   Scattered Clouds
11:53 AM 88.0 °F 96.5 °F 73.9 °F 63% 30.19 in 10.0 mi East 4.6 mph - N/A   Scattered Clouds
12:53 PM 90.0 °F 97.9 °F 73.0 °F 57% 30.17 in 10.0 mi SSE 4.6 mph - N/A   Scattered Clouds
1:53 PM 90.0 °F 97.9 °F 73.0 °F 57% 30.16 in 10.0 mi South 8.1 mph - N/A   Scattered Clouds
2:53 PM 91.0 °F 98.2 °F 72.0 °F 53% 30.15 in 10.0 mi SSE 9.2 mph - N/A   Scattered Clouds
3:53 PM 91.0 °F 97.6 °F 71.1 °F 52% 30.12 in 10.0 mi South 4.6 mph - N/A   Scattered Clouds
4:53 PM 91.0 °F 98.2 °F 72.0 °F 53% 30.11 in 10.0 mi South 9.2 mph - N/A   Scattered Clouds
5:53 PM 90.0 °F 97.9 °F 73.0 °F 57% 30.10 in 10.0 mi South 11.5 mph - N/A   Scattered Clouds
6:53 PM 88.0 °F 96.5 °F 73.9 °F 63% 30.11 in 10.0 mi SSE 10.4 mph - N/A   Scattered Clouds
7:53 PM 86.0 °F 93.8 °F 73.9 °F 67% 30.13 in 10.0 mi South 6.9 mph - N/A   Scattered Clouds
8:53 PM 84.0 °F 91.9 °F 75.0 °F 74% 30.14 in 10.0 mi SW 3.5 mph - N/A   Clear
9:53 PM 82.0 °F 90.2 °F 77.0 °F 85% 30.15 in 10.0 mi Calm Calm - N/A   Clear
10:53 PM 81.0 °F 87.9 °F 77.0 °F 88% 30.16 in 10.0 mi Calm Calm - N/A   Clear
11:53 PM 79.0 °F - 75.9 °F 90% 30.16 in 10.0 mi Calm Calm - N/A   Clear